Regional Weather Roundup
Issued by NWS

Home | Current Version | Previous Version | Text Only | Print | Product List | Glossary Off
Versions: 1 2 3 4 5 6 7 8 9 10 11 12 13 14 15 16 17 18 19 20 21 22 23 24 25 26 27 28 29 30 31 32 33 34 35 36 37 38 39 40 41 42 43 44 45 46 47 48 49 50

000
ASUS43 KTOP 291059
RWRKS

WEATHER ROUNDUP FOR KANSAS
NATIONAL WEATHER SERVICE GOODLAND KS
600 AM CDT FRI MAY 29 2015

NOTE:  "FAIR" INDICATES FEW OR NO CLOUDS BELOW 12,000 FEET WITH NO
SIGNIFICANT WEATHER AND/OR OBSTRUCTIONS TO VISIBILITY.

KSZ001>006-013>018-027>032-041>047-291200-
NORTHWEST KANSAS

CITY           SKY/WX    TMP DP  RH WIND       PRES   REMARKS
GOODLAND       PTCLDY    52  49  89 W7        30.04R
HAYS           MOCLDY    55  46  71 CALM      29.98R
HILL CITY      PTCLDY    55  52  89 W7        29.96S
RUSSELL        MOCLDY    57  56  96 S5        29.96R
$$

KSZ061>065-074>080-084>089-291200-
SOUTHWEST KANSAS

CITY           SKY/WX    TMP DP  RH WIND       PRES   REMARKS
DODGE CITY     MOCLDY    55  52  89 N5        29.99S
ELKHART          N/A     54  51  90 W5          N/A
GARDEN CITY    PTCLDY    53  52  96 N8        29.99S
GREAT BEND     CLOUDY    61  55  82 W5        29.98R
LIBERAL        MOCLDY    55  52  88 NW8       30.00S
$$

KSZ066>073-081>083-090>101-291200-
SOUTHEAST KANSAS

CITY           SKY/WX    TMP DP  RH WIND       PRES   REMARKS
CHANUTE        LGT RAIN  66  64  93 NE7       29.97S
COFFEYVILLE    LGT RAIN  69  67  93 S10       29.96R
HUTCHINSON     CLOUDY    61  58  90 NW3       29.95R
MEDICINE LODGE   N/A     58  57  97 NW3       29.95R
NEWTON         CLOUDY    64  61  88 S9        29.97S
PARSONS        TSTM      67  67 100 VRB3      29.99R FOG
WICHITA INTL   CLOUDY    68  66  94 NE5       29.95R
WICHITA JABRA  CLOUDY    65  64  97 CALM      29.96R
WINFIELD       CLOUDY    69  68  96 S5        29.95R
$$

KSZ007>012-019>026-033>040-048>060-102>105-291200-
NORTHEAST KANSAS

CITY           SKY/WX    TMP DP  RH WIND       PRES   REMARKS
CONCORDIA      CLOUDY    59  58  96 W6        29.94R
EMPORIA        CLOUDY    64  62  93 S8        29.95R
LAWRENCE       LGT RAIN  66  63  90 S8        29.96R FOG
MANHATTAN      MOCLDY    64  64 100 CALM      29.93R
OLATHE IND     TSTM      65  65 100 SW10      29.99R FOG
OLATHE EXE     TSTM      65  65 100 W8        29.98R FOG
SALINA         CLOUDY    61  58  90 CALM      29.95R
TOPEKA BILLARD CLOUDY    67  63  87 S8        29.91F
TOPEKA FORBES  CLOUDY    68  65  90 S12       29.92F
$$



USA.gov is the U.S. government's official web portal to all federal, state and local government web resources and services.